sat.trackr.live / text

‹ back to catalog

UNKNOWN

NORAD 87998

UNKNOWN UNKNOWN UNKNOWN

§ Identity

Operator
Country
Launch date
Launch site
Launch vehicle
Mass (kg)
RCS (m²)

External: N2YO · Heavens-Above

§ Orbital elements

Epoch: 2026-07-03T19:04:22.308960Z

Period
101.98 min
Inclination
98.5974°
Eccentricity
0.0027132
Mean motion
14.12070758 rev/d
Perigee alt
832.7 km
Apogee alt
871.9 km
Semi-major
7,230.4 km
B*
4.5342e-4
RAAN
187.1507°
Arg perigee
28.6914°
Mean anomaly
331.5745°
Rev number
57,755

§ Raw data

UNKNOWN1 87998U          26184.79470265  .00000792  00000+0  45342-3 0  99902 87998  98.5974 187.1507 0027132  28.6914 331.5745 14.12070758577551

JSON: /api/v1/satellites/87998 · /tle

For live sub-satellite position, see the globe view (requires WebGL).

§ Visibility from observer

Set your observer location to see the next 7 days of passes ≥ 10°. The values pass through the URL so the page stays shareable.

No JS? Fill the form by hand. The geolocation button needs JavaScript.